[[{"header":{"parameterUnit":"m.s-1","parameterCategory":1,"la1":30.2992,"la2":30.254,"lo1":-89.0895,"lo2":-89.0443,"dy":0.0025,"dx":0.0025,"nx":19,"ny":19,"refTime":"2026-05-05T21:00:00:Z","depth":0,"parameterNumber":2,"parameterNumberName":"U-component_of_WINDS"},"data":[0,0,0,-0.8982,-0.8985,-0.9106,-0.9107,-0.9258,-0.9259,0,0,0,0,0,0,0,0,0,0,0,-0.8941,-0.8942,-0.8982,-0.8985,-0.9106,-0.9107,-0.9258,-0.9259,0,0,0,0,0,0,0,0,0,0,0,-0.894,-0.8941,-0.8942,-0.8985,-0.9106,-0.9107,-0.9257,-0.9168,0,0,0,0,0,0,0,0,0,0,-0.9051,-0.9006,-0.8941,-0.8942,-0.8986,-0.9106,-0.9107,-0.9164,-0.9174,-0.92,0,-0.9219,0,-0.9241,-0.9269,-0.9269,0,0,0,-0.899,-0.8998,-0.9036,-0.8942,-0.8987,-0.9106,-0.9053,-0.9169,-0.918,-0.9213,-0.9222,-0.9227,-0.9244,-0.927,-0.927,-0.94,-0.9401,0,0,-0.8983,-0.896,-0.9028,-0.9042,-0.902,-0.9049,-0.9057,-0.9176,-0.9185,-0.9222,-0.9231,-0.9246,-0.9271,-0.9272,-0.94,-0.94,0,0,0,-0.8961,-0.8955,-0.899,-0.9036,-0.9058,-0.9052,-0.9061,-0.918,-0.9193,-0.9233,-0.9248,-0.9271,-0.9273,-0.9399,-0.94,-0.9395,0,0,0,-0.8957,-0.8942,-0.8987,-0.8974,-0.9056,-0.912,-0.9062,-0.9185,-0.9199,-0.9247,-0.9271,-0.9274,-0.9399,-0.94,-0.9395,-0.9397,0,0,0,-0.8935,-0.894,-0.8955,-0.8973,-0.9023,-0.9118,-0.9139,-0.9188,-0.9208,-0.9269,-0.9275,-0.9399,-0.94,-0.9394,-0.9396,-0.9425,0,0,0,-0.8905,-0.895,-0.8954,-0.901,-0.9022,-0.9113,-0.9138,-0.9208,-0.926,-0.9272,-0.9399,-0.94,-0.9394,-0.9396,-0.9424,-0.9446,-0.9452,0,0,-0.8949,-0.8954,-0.8989,-0.8997,-0.908,-0.9097,-0.9182,-0.9252,-0.9281,-0.936,-0.9363,-0.9395,-0.9396,-0.9425,-0.9494,-0.9499,0,0,0,-0.8995,-0.902,-0.9047,-0.9094,-0.9147,-0.9195,-0.9254,-0.9281,-0.9349,-0.9315,-0.9413,-0.9415,-0.9433,-0.9445,-0.9449,-0.9466,-0.9404,-0.9404,-0.9404,-0.9024,-0.9056,-0.9116,-0.9163,-0.9209,-0.927,-0.9311,-0.9358,-0.9378,-0.9401,-0.9425,-0.9462,-0.9475,-0.9478,-0.9496,-0.9438,-0.9438,-0.9438,-0.9438,-0.9091,-0.9132,-0.9157,-0.9224,-0.9259,-0.9317,-0.9379,-0.9391,-0.9453,-0.9447,-0.9464,-0.9456,-0.9482,-0.95,-0.9438,-0.9438,-0.9438,-0.9438,-0.9438,-0.9114,-0.9139,-0.9169,-0.9241,-0.9294,-0.9341,-0.9398,-0.9428,-0.9458,-0.9475,-0.9504,-0.9505,-0.951,-0.9487,-0.9487,-0.9487,-0.9487,-0.9487,-0.9487,-0.9127,-0.916,-0.9203,-0.9264,-0.9299,-0.9349,-0.9411,-0.9448,-0.9496,-0.9514,-0.9514,-0.9533,-0.9478,-0.9464,-0.9489,-0.9489,-0.9489,-0.9488,-0.9488,-0.9185,-0.9176,-0.9242,-0.9277,-0.9352,-0.9403,-0.944,-0.9511,-0.9546,-0.9574,-0.959,-0.9543,-0.9552,-0.9549,-0.9537,-0.9581,-0.9581,-0.9581,-0.9581,-0.9205,-0.9211,-0.9286,-0.934,-0.9396,-0.9437,-0.9514,-0.9564,-0.9615,-0.9639,-0.9637,-0.9625,-0.962,-0.9632,-0.9627,-0.9617,-0.968,-0.968,-0.968,-0.9243,-0.9257,-0.9315,-0.9362,-0.9423,-0.9475,-0.9549,-0.9613,-0.9669,-0.9685,-0.9659,-0.9655,-0.9635,-0.9626,-0.9642,-0.9634,-0.9616,0,0]},{"header":{"parameterUnit":"m.s-1","parameterCategory":1,"la1":30.2992,"la2":30.254,"lo1":-89.0895,"lo2":-89.0443,"dy":0.0025,"dx":0.0025,"nx":19,"ny":19,"refTime":"2026-05-05T21:00:00:Z","depth":0,"parameterNumber":3,"parameterNumberName":"V-component_of_WINDS"},"data":[0,0,0,6.2862,6.2864,6.2926,6.2926,6.3023,6.3024,0,0,0,0,0,0,0,0,0,0,0,6.2857,6.2858,6.2862,6.2864,6.2926,6.2926,6.3023,6.3024,0,0,0,0,0,0,0,0,0,0,0,6.2856,6.2858,6.2859,6.2865,6.2926,6.2926,6.3023,6.2969,0,0,0,0,0,0,0,0,0,0,6.2906,6.2914,6.2858,6.2859,6.2865,6.2926,6.2926,6.2966,6.2973,6.3003,0,6.3036,0,6.3032,6.3032,6.3033,0,0,0,6.2854,6.2909,6.2914,6.286,6.2866,6.2926,6.2895,6.297,6.2977,6.3012,6.3037,6.304,6.3034,6.3033,6.3033,6.3249,6.325,0,0,6.2851,6.2875,6.2909,6.2919,6.2914,6.2893,6.2897,6.2974,6.3002,6.3038,6.3042,6.3035,6.3034,6.3035,6.3247,6.3249,0,0,0,6.2848,6.2873,6.2876,6.2916,6.2926,6.2896,6.29,6.2999,6.2998,6.3043,6.3036,6.3034,6.3036,6.3246,6.3248,6.3345,0,0,0,6.2845,6.2871,6.2875,6.289,6.2925,6.2964,6.2924,6.2993,6.3,6.3036,6.3034,6.3037,6.3244,6.3247,6.3338,6.3386,0,0,0,6.2848,6.2871,6.2885,6.2891,6.2919,6.2962,6.2965,6.2994,6.2997,6.3033,6.3037,6.3243,6.3246,6.3333,6.3377,6.3449,0,0,0,6.2859,6.297,6.2887,6.3009,6.2919,6.3022,6.2964,6.304,6.3082,6.3035,6.3244,6.3248,6.3331,6.3371,6.3443,6.3513,6.3545,0,0,6.3013,6.299,6.3059,6.2986,6.3111,6.3011,6.3148,6.3164,6.3144,6.3214,6.3219,6.334,6.3376,6.3447,6.3717,6.3742,0,0,0,6.3116,6.3166,6.3194,6.3236,6.3251,6.3267,6.3258,6.3263,6.3322,6.3186,6.3386,6.3406,6.3447,6.3479,6.3501,6.3533,6.3264,6.3264,6.3263,6.3369,6.3338,6.345,6.3427,6.3468,6.3458,6.3488,6.3492,6.345,6.3497,6.3518,6.3685,6.3724,6.374,6.3775,6.3553,6.3553,6.3554,6.3554,6.3591,6.3656,6.3596,6.3683,6.3649,6.3721,6.3715,6.3682,6.3743,6.3668,6.3702,6.3622,6.3769,6.3797,6.3561,6.356,6.3559,6.3558,6.3558,6.3752,6.3778,6.3783,6.3839,6.3885,6.3857,6.3918,6.3885,6.3854,6.3888,6.3905,6.3903,6.3896,6.3899,6.3899,6.39,6.39,6.3901,6.3901,6.3917,6.392,6.3976,6.4,6.4021,6.4045,6.4035,6.4054,6.4067,6.4038,6.4038,6.3989,6.379,6.374,6.391,6.3908,6.3907,6.3906,6.3906,6.4152,6.4093,6.4181,6.4202,6.4226,6.4273,6.423,6.4272,6.4283,6.4314,6.4258,6.4116,6.409,6.4072,6.403,6.4265,6.4265,6.4265,6.4265,6.4288,6.4271,6.4351,6.4387,6.4419,6.4388,6.4485,6.4477,6.446,6.4464,6.4425,6.4367,6.4351,6.4334,6.4311,6.4271,6.4562,6.4562,6.4563,6.4429,6.4414,6.4504,6.4487,6.4502,6.4516,6.4605,6.4647,6.4615,6.4574,6.4466,6.4454,6.436,6.4331,6.4287,6.4252,6.4179,0,0]}]]